| time (UTC) | temp C | wind direction | speed KPH | gust KPH | rain 1hr cm | rain 24hr cm | rain mn cm | humidity % | barometer mb |
| 20260506215505 | 17 | 50 | 9.7 | 19.3 | 0.00 | 0.00 | 0.00 | 48 | 1015.7 |
| 20260506215009 | 17 | 31 | 6.4 | 24.1 | 0.00 | 0.00 | 0.00 | 48 | 1015.7 |
| 20260506214522 | 17 | 36 | 14.5 | 24.1 | 0.00 | 0.00 | 0.00 | 47 | 1015.6 |
| 20260506214009 | 17 | 26 | 11.3 | 20.9 | 0.00 | 0.00 | 0.00 | 47 | 1015.6 |
| 20260506213510 | 17 | 289 | 6.4 | 25.7 | 0.00 | 0.00 | 0.00 | 47 | 1015.5 |
| 20260506213019 | 17 | 36 | 12.9 | 25.7 | 0.00 | 0.00 | 0.00 | 46 | 1015.6 |
| 20260506212510 | 18 | 307 | 9.7 | 24.1 | 0.00 | 0.00 | 0.00 | 45 | 1015.7 |
| 20260506212010 | 17 | 58 | 12.9 | 24.1 | 0.00 | 0.00 | 0.00 | 48 | 1015.7 |
| 20260506211515 | 17 | 40 | 9.7 | 19.3 | 0.00 | 0.00 | 0.00 | 49 | 1015.7 |
| 20260506211009 | 17 | 12 | 9.7 | 17.7 | 0.00 | 0.00 | 0.00 | 49 | 1015.7 |
| 20260506210508 | 17 | 21 | 8.0 | 25.7 | 0.00 | 0.00 | 0.00 | 49 | 1015.6 |
| 20260506210029 | 18 | 330 | 6.4 | 25.7 | 0.00 | 0.00 | 0.00 | 51 | 1015.7 |
| 20260506205509 | 17 | 49 | 6.4 | 24.1 | 0.00 | 0.00 | 0.00 | 52 | 1015.7 |
| 20260506205008 | 17 | 33 | 11.3 | 24.1 | 0.00 | 0.00 | 0.00 | 50 | 1015.9 |
| 20260506204523 | 17 | 12 | 8.0 | 22.5 | 0.00 | 0.00 | 0.00 | 51 | 1016.0 |
| 20260506204007 | 17 | 23 | 12.9 | 20.9 | 0.00 | 0.00 | 0.00 | 52 | 1016.0 |
| 20260506203507 | 17 | 7 | 9.7 | 19.3 | 0.00 | 0.00 | 0.00 | 51 | 1016.1 |
| 20260506203009 | 17 | 63 | 12.9 | 19.3 | 0.00 | 0.00 | 0.00 | 51 | 1016.2 |
| 20260506202504 | 17 | 63 | 6.4 | 14.5 | 0.00 | 0.00 | 0.00 | 51 | 1016.2 |
| 20260506202007 | 17 | 60 | 8.0 | 16.1 | 0.00 | 0.00 | 0.00 | 50 | 1016.3 |
| 20260506201508 | 17 | 66 | 6.4 | 16.1 | 0.00 | 0.00 | 0.00 | 52 | 1016.3 |
| 20260506201008 | 17 | 79 | 6.4 | 19.3 | 0.00 | 0.00 | 0.00 | 50 | 1016.3 |
| 20260506200506 | 17 | 23 | 6.4 | 19.3 | 0.00 | 0.00 | 0.00 | 51 | 1016.5 |
| 20260506200005 | 17 | 15 | 4.8 | 17.7 | 0.00 | 0.00 | 0.00 | 53 | 1016.5 |
| 20260506195507 | 16 | 46 | 9.7 | 17.7 | 0.00 | 0.00 | 0.00 | 52 | 1016.5 |
| 20260506195003 | 17 | 69 | 6.4 | 22.5 | 0.00 | 0.00 | 0.00 | 52 | 1016.4 |
| 20260506194505 | 17 | 29 | 12.9 | 22.5 | 0.00 | 0.00 | 0.00 | 51 | 1016.4 |
| 20260506194012 | 17 | 48 | 9.7 | 24.1 | 0.00 | 0.00 | 0.00 | 51 | 1016.4 |
| 20260506193503 | 17 | 65 | 11.3 | 24.1 | 0.00 | 0.00 | 0.00 | 55 | 1016.3 |
| 20260506193020 | 17 | 13 | 12.9 | 20.9 | 0.00 | 0.00 | 0.00 | 50 | 1016.4 |
| 20260506192509 | 17 | 18 | 6.4 | 20.9 | 0.00 | 0.00 | 0.00 | 51 | 1016.4 |
| 20260506192003 | 17 | 23 | 14.5 | 24.1 | 0.00 | 0.00 | 0.00 | 50 | 1016.6 |
| 20260506191520 | 17 | 88 | 11.3 | 24.1 | 0.00 | 0.00 | 0.00 | 53 | 1016.8 |
| 20260506191004 | 17 | 101 | 9.7 | 19.3 | 0.00 | 0.00 | 0.00 | 54 | 1016.9 |
| 20260506190503 | 17 | 88 | 11.3 | 20.9 | 0.00 | 0.00 | 0.00 | 52 | 1017.0 |
| 20260506190018 | 16 | 42 | 9.7 | 20.9 | 0.00 | 0.00 | 0.00 | 51 | 1017.2 |
| 20260506185505 | 17 | 17 | 14.5 | 20.9 | 0.00 | 0.00 | 0.00 | 53 | 1017.1 |
| 20260506185008 | 16 | 43 | 11.3 | 20.9 | 0.00 | 0.00 | 0.00 | 51 | 1017.2 |
| 20260506184516 | 17 | 71 | 9.7 | 20.9 | 0.00 | 0.00 | 0.00 | 51 | 1017.2 |
| 20260506184005 | 17 | 49 | 8.0 | 24.1 | 0.00 | 0.00 | 0.00 | 52 | 1017.1 |
| 20260506183509 | 17 | 18 | 3.2 | 24.1 | 0.00 | 0.00 | 0.00 | 53 | 1017.2 |
| 20260506183018 | 17 | 31 | 11.3 | 22.5 | 0.00 | 0.00 | 0.00 | 52 | 1017.4 |
| 20260506182506 | 17 | 27 | 9.7 | 19.3 | 0.00 | 0.00 | 0.00 | 53 | 1017.3 |
| 20260506182011 | 17 | 22 | 8.0 | 20.9 | 0.00 | 0.00 | 0.00 | 52 | 1017.4 |
| 20260506181510 | 17 | 15 | 9.7 | 24.1 | 0.00 | 0.00 | 0.00 | 53 | 1017.4 |
| 20260506181011 | 16 | 96 | 11.3 | 24.1 | 0.00 | 0.00 | 0.00 | 53 | 1017.5 |
| 20260506180506 | 17 | 27 | 14.5 | 24.1 | 0.00 | 0.00 | 0.00 | 51 | 1017.6 |
| 20260506180006 | 17 | 39 | 12.9 | 25.7 | 0.00 | 0.00 | 0.00 | 51 | 1017.5 |
| 20260506175506 | 17 | 19 | 9.7 | 25.7 | 0.00 | 0.00 | 0.00 | 52 | 1017.6 |
| 20260506175003 | 16 | 26 | 8.0 | 27.4 | 0.00 | 0.00 | 0.00 | 54 | 1017.6 |
| 20260506174505 | 17 | 32 | 14.5 | 27.4 | 0.00 | 0.00 | 0.00 | 52 | 1017.8 |
| 20260506174008 | 17 | 44 | 12.9 | 24.1 | 0.00 | 0.00 | 0.00 | 52 | 1017.9 |
| 20260506173508 | 17 | 341 | 8.0 | 24.1 | 0.00 | 0.00 | 0.00 | 54 | 1017.8 |
| 20260506173021 | 16 | 19 | 12.9 | 30.6 | 0.00 | 0.00 | 0.00 | 49 | 1018.0 |
| 20260506172506 | 16 | 63 | 14.5 | 30.6 | 0.00 | 0.00 | 0.00 | 53 | 1018.2 |
| 20260506172005 | 16 | 20 | 19.3 | 30.6 | 0.00 | 0.00 | 0.00 | 52 | 1018.5 |
| 20260506171520 | 16 | 52 | 16.1 | 24.1 | 0.00 | 0.00 | 0.00 | 52 | 1018.6 |
| 20260506171005 | 16 | 50 | 11.3 | 20.9 | 0.00 | 0.00 | 0.00 | 52 | 1018.6 |
| 20260506170504 | 16 | 73 | 9.7 | 20.9 | 0.00 | 0.00 | 0.00 | 53 | 1018.8 |
| 20260506170021 | 16 | 88 | 9.7 | 17.7 | 0.00 | 0.00 | 0.00 | 52 | 1018.9 |
| 20260506165508 | 16 | 39 | 8.0 | 24.1 | 0.00 | 0.00 | 0.00 | 56 | 1019.1 |
| 20260506165010 | 15 | 40 | 8.0 | 24.1 | 0.00 | 0.00 | 0.00 | 56 | 1019.0 |
| 20260506164516 | 15 | 35 | 4.8 | 24.1 | 0.00 | 0.00 | 0.00 | 57 | 1019.0 |
| 20260506164007 | 15 | 21 | 11.3 | 19.3 | 0.00 | 0.00 | 0.00 | 56 | 1018.9 |
| 20260506163511 | 15 | 19 | 6.4 | 19.3 | 0.00 | 0.00 | 0.00 | 55 | 1018.7 |
| 20260506163030 | 15 | 45 | 6.4 | 22.5 | 0.00 | 0.00 | 0.00 | 56 | 1018.6 |
| 20260506162507 | 15 | 33 | 8.0 | 22.5 | 0.00 | 0.00 | 0.00 | 57 | 1018.4 |
| 20260506162011 | 15 | 354 | 9.7 | 22.5 | 0.00 | 0.00 | 0.00 | 57 | 1018.4 |
| 20260506161511 | 15 | 97 | 12.9 | 29.0 | 0.00 | 0.00 | 0.00 | 58 | 1018.5 |
| 20260506161007 | 15 | 26 | 12.9 | 29.0 | 0.00 | 0.00 | 0.00 | 55 | 1018.6 |
| 20260506160510 | 15 | 12 | 12.9 | 22.5 | 0.00 | 0.00 | 0.00 | 59 | 1018.5 |
| 20260506160012 | 15 | 27 | 11.3 | 22.5 | 0.00 | 0.00 | 0.00 | 56 | 1018.2 |
| 20260506155508 | 15 | 46 | 9.7 | 17.7 | 0.00 | 0.00 | 0.00 | 57 | 1018.0 |
| 20260506155007 | 15 | 87 | 4.8 | 17.7 | 0.00 | 0.00 | 0.00 | 59 | 1017.9 |
| 20260506154531 | 14 | 19 | 8.0 | 20.9 | 0.00 | 0.00 | 0.00 | 58 | 1017.9 |
| 20260506154017 | 14 | 46 | 11.3 | 20.9 | 0.00 | 0.00 | 0.00 | 58 | 1017.8 |
| 20260506153509 | 14 | 75 | 9.7 | 20.9 | 0.00 | 0.00 | 0.00 | 60 | 1017.7 |
| 20260506153025 | 13 | 51 | 12.9 | 25.7 | 0.00 | 0.00 | 0.00 | 59 | 1017.6 |
| 20260506152509 | 13 | 72 | 14.5 | 25.7 | 0.00 | 0.00 | 0.00 | 60 | 1017.3 |
| 20260506152005 | 13 | 44 | 9.7 | 25.7 | 0.00 | 0.00 | 0.00 | 60 | 1017.3 |
| 20260506151524 | 13 | 30 | 14.5 | 24.1 | 0.00 | 0.00 | 0.00 | 60 | 1017.1 |
| 20260506151008 | 12 | 56 | 8.0 | 24.1 | 0.00 | 0.00 | 0.00 | 61 | 1017.0 |
| 20260506150509 | 12 | 40 | 14.5 | 32.2 | 0.00 | 0.00 | 0.00 | 60 | 1016.9 |
| 20260506150020 | 12 | 62 | 16.1 | 32.2 | 0.00 | 0.00 | 0.00 | 61 | 1017.1 |
| 20260506145507 | 12 | 58 | 14.5 | 27.4 | 0.00 | 0.00 | 0.00 | 62 | 1017.0 |
| 20260506145008 | 12 | 17 | 12.9 | 29.0 | 0.00 | 0.00 | 0.00 | 63 | 1017.1 |
| 20260506144522 | 12 | 50 | 11.3 | 29.0 | 0.00 | 0.00 | 0.00 | 63 | 1017.1 |
| 20260506144006 | 12 | 1 | 11.3 | 27.4 | 0.00 | 0.00 | 0.00 | 64 | 1017.1 |
| 20260506143512 | 12 | 29 | 11.3 | 24.1 | 0.00 | 0.00 | 0.00 | 64 | 1017.1 |
| 20260506143018 | 12 | 75 | 9.7 | 24.1 | 0.00 | 0.00 | 0.00 | 65 | 1017.1 |
| 20260506142511 | 11 | 63 | 11.3 | 27.4 | 0.00 | 0.00 | 0.00 | 67 | 1017.0 |
| 20260506142010 | 11 | 29 | 11.3 | 27.4 | 0.00 | 0.00 | 0.00 | 68 | 1017.0 |
| 20260506141516 | 11 | 30 | 16.1 | 27.4 | 0.00 | 0.00 | 0.00 | 69 | 1017.0 |
| 20260506141009 | 11 | 28 | 11.3 | 24.1 | 0.00 | 0.00 | 0.00 | 69 | 1017.0 |
| 20260506140511 | 10 | 15 | 11.3 | 30.6 | 0.00 | 0.00 | 0.00 | 70 | 1017.2 |
| 20260506140012 | 10 | 10 | 17.7 | 30.6 | 0.00 | 0.00 | 0.00 | 70 | 1017.2 |
| 20260506135510 | 10 | 47 | 6.4 | 24.1 | 0.00 | 0.00 | 0.00 | 72 | 1017.1 |
| 20260506135010 | 10 | 44 | 9.7 | 24.1 | 0.00 | 0.00 | 0.00 | 71 | 1016.9 |
| 20260506134524 | 10 | 27 | 8.0 | 24.1 | 0.00 | 0.00 | 0.00 | 73 | 1017.0 |
| 20260506134017 | 10 | 27 | 16.1 | 24.1 | 0.00 | 0.00 | 0.00 | 72 | 1017.2 |
| 20260506133508 | 10 | 15 | 12.9 | 24.1 | 0.00 | 0.00 | 0.00 | 73 | 1017.4 |
| 20260506133026 | 10 | 18 | 8.0 | 27.4 | 0.00 | 0.00 | 0.00 | 73 | 1017.1 |
| 20260506132510 | 10 | 33 | 16.1 | 27.4 | 0.00 | 0.00 | 0.00 | 74 | 1017.1 |
| 20260506132010 | 10 | 67 | 9.7 | 22.5 | 0.00 | 0.00 | 0.00 | 74 | 1017.1 |
| 20260506131524 | 10 | 11 | 12.9 | 22.5 | 0.00 | 0.00 | 0.00 | 74 | 1017.2 |
| 20260506131008 | 9 | 19 | 8.0 | 22.5 | 0.00 | 0.00 | 0.00 | 75 | 1017.2 |
| 20260506130513 | 9 | 23 | 11.3 | 24.1 | 0.00 | 0.00 | 0.00 | 75 | 1017.0 |
| 20260506130024 | 9 | 19 | 12.9 | 32.2 | 0.00 | 0.00 | 0.00 | 75 | 1016.8 |
| 20260506125508 | 9 | 21 | 12.9 | 32.2 | 0.00 | 0.00 | 0.00 | 75 | 1017.1 |
| 20260506125010 | 9 | 17 | 12.9 | 25.7 | 0.00 | 0.00 | 0.00 | 76 | 1017.0 |
| 20260506124524 | 9 | 44 | 14.5 | 30.6 | 0.00 | 0.00 | 0.00 | 76 | 1017.0 |
| 20260506124010 | 9 | 32 | 12.9 | 30.6 | 0.00 | 0.00 | 0.00 | 76 | 1017.0 |
| 20260506123509 | 9 | 16 | 11.3 | 29.0 | 0.00 | 0.00 | 0.00 | 76 | 1016.8 |
| 20260506123019 | 9 | 21 | 19.3 | 29.0 | 0.00 | 0.00 | 0.00 | 76 | 1017.0 |
| 20260506122510 | 9 | 22 | 16.1 | 25.7 | 0.00 | 0.00 | 0.00 | 75 | 1016.6 |
| 20260506122011 | 9 | 347 | 14.5 | 29.0 | 0.00 | 0.00 | 0.00 | 75 | 1016.7 |
| 20260506121517 | 9 | 292 | 17.7 | 29.0 | 0.00 | 0.00 | 0.00 | 75 | 1016.5 |
| 20260506121010 | 9 | 32 | 11.3 | 29.0 | 0.00 | 0.00 | 0.00 | 75 | 1016.3 |
| 20260506120514 | 9 | 47 | 8.0 | 27.4 | 0.00 | 0.00 | 0.00 | 75 | 1016.1 |
| 20260506120031 | 9 | 15 | 9.7 | 19.3 | 0.00 | 0.00 | 0.00 | 75 | 1016.3 |
| 20260506115510 | 9 | 39 | 6.4 | 24.1 | 0.00 | 0.00 | 0.00 | 75 | 1016.4 |
| 20260506115006 | 9 | 11 | 14.5 | 24.1 | 0.00 | 0.00 | 0.00 | 75 | 1016.1 |
| 20260506114514 | 9 | 25 | 3.2 | 19.3 | 0.00 | 0.00 | 0.00 | 74 | 1016.3 |
| 20260506114005 | 9 | 332 | 4.8 | 27.4 | 0.00 | 0.00 | 0.00 | 74 | 1016.4 |
| 20260506113507 | 9 | 49 | 14.5 | 27.4 | 0.00 | 0.00 | 0.00 | 74 | 1016.4 |
| 20260506113015 | 9 | 356 | 11.3 | 24.1 | 0.00 | 0.00 | 0.00 | 74 | 1016.3 |
| 20260506112503 | 9 | 19 | 14.5 | 24.1 | 0.00 | 0.00 | 0.00 | 74 | 1016.2 |
| 20260506112008 | 9 | 38 | 11.3 | 24.1 | 0.00 | 0.00 | 0.00 | 74 | 1016.2 |
| 20260506111509 | 9 | 29 | 11.3 | 22.5 | 0.00 | 0.00 | 0.00 | 74 | 1016.2 |
| 20260506111010 | 9 | 23 | 6.4 | 19.3 | 0.00 | 0.00 | 0.00 | 73 | 1016.1 |
| 20260506110507 | 9 | 25 | 8.0 | 19.3 | 0.00 | 0.00 | 0.00 | 73 | 1016.0 |
| 20260506110005 | 10 | 37 | 4.8 | 20.9 | 0.00 | 0.00 | 0.00 | 73 | 1015.8 |
| 20260506105514 | 10 | 17 | 9.7 | 20.9 | 0.00 | 0.00 | 0.00 | 72 | 1015.6 |
| 20260506105007 | 10 | 41 | 6.4 | 20.9 | 0.00 | 0.00 | 0.00 | 72 | 1015.6 |
| 20260506104504 | 10 | 27 | 9.7 | 20.9 | 0.00 | 0.00 | 0.00 | 72 | 1015.7 |
| 20260506104007 | 10 | 59 | 6.4 | 20.9 | 0.00 | 0.00 | 0.00 | 72 | 1015.5 |
| 20260506103504 | 10 | 5 | 6.4 | 19.3 | 0.00 | 0.00 | 0.00 | 72 | 1015.5 |
| 20260506103024 | 10 | 41 | 6.4 | 20.9 | 0.00 | 0.00 | 0.00 | 72 | 1015.3 |
| 20260506102506 | 10 | 351 | 9.7 | 20.9 | 0.00 | 0.00 | 0.00 | 72 | 1015.2 |
| 20260506102006 | 10 | 29 | 6.4 | 17.7 | 0.00 | 0.00 | 0.00 | 73 | 1015.3 |
| 20260506101522 | 10 | 46 | 6.4 | 17.7 | 0.00 | 0.00 | 0.00 | 73 | 1015.5 |
| 20260506101008 | 10 | 30 | 6.4 | 16.1 | 0.00 | 0.00 | 0.00 | 73 | 1015.4 |
| 20260506100504 | 10 | 31 | 8.0 | 22.5 | 0.00 | 0.00 | 0.00 | 73 | 1015.3 |
| 20260506100020 | 10 | 22 | 6.4 | 22.5 | 0.00 | 0.00 | 0.00 | 73 | 1015.3 |
| 20260506095506 | 10 | 19 | 4.8 | 11.3 | 0.00 | 0.00 | 0.00 | 73 | 1015.2 |
| 20260506095007 | 10 | 23 | 4.8 | 14.5 | 0.00 | 0.00 | 0.00 | 73 | 1015.1 |
| 20260506094516 | 10 | 45 | 4.8 | 19.3 | 0.00 | 0.00 | 0.00 | 73 | 1015.2 |
| 20260506094003 | 10 | 10 | 6.4 | 19.3 | 0.00 | 0.00 | 0.00 | 73 | 1015.0 |
| 20260506093510 | 10 | 321 | 3.2 | 16.1 | 0.00 | 0.00 | 0.00 | 73 | 1014.7 |
| 20260506093014 | 10 | 44 | 6.4 | 16.1 | 0.00 | 0.00 | 0.00 | 73 | 1014.5 |
| 20260506092508 | 10 | 29 | 6.4 | 16.1 | 0.00 | 0.00 | 0.00 | 73 | 1014.3 |
| 20260506092011 | 10 | 303 | 4.8 | 16.1 | 0.00 | 0.00 | 0.00 | 73 | 1014.3 |
| 20260506091515 | 10 | 24 | 6.4 | 16.1 | 0.00 | 0.00 | 0.00 | 73 | 1014.1 |
| 20260506091008 | 10 | 301 | 8.0 | 19.3 | 0.00 | 0.00 | 0.00 | 73 | 1013.9 |
| 20260506090508 | 10 | 43 | 11.3 | 19.3 | 0.00 | 0.00 | 0.00 | 73 | 1013.5 |
| 20260506090009 | 10 | 18 | 8.0 | 17.7 | 0.00 | 0.00 | 0.00 | 73 | 1013.4 |
| 20260506085508 | 10 | 342 | 6.4 | 17.7 | 0.00 | 0.00 | 0.00 | 73 | 1013.3 |
| 20260506085006 | 10 | 12 | 6.4 | 22.5 | 0.00 | 0.00 | 0.00 | 73 | 1013.2 |
| 20260506084527 | 10 | 5 | 8.0 | 22.5 | 0.00 | 0.00 | 0.00 | 73 | 1013.2 |
| 20260506084007 | 10 | 21 | 4.8 | 17.7 | 0.00 | 0.00 | 0.00 | 73 | 1013.2 |
| 20260506083504 | 10 | 41 | 3.2 | 19.3 | 0.00 | 0.00 | 0.00 | 72 | 1013.2 |
| 20260506083027 | 10 | 44 | 8.0 | 19.3 | 0.00 | 0.00 | 0.00 | 72 | 1013.1 |
| 20260506082511 | 10 | 9 | 8.0 | 16.1 | 0.00 | 0.00 | 0.00 | 72 | 1012.9 |
| 20260506082003 | 10 | 55 | 8.0 | 16.1 | 0.00 | 0.00 | 0.00 | 72 | 1013.0 |
| 20260506081524 | 10 | 359 | 8.0 | 20.9 | 0.00 | 0.00 | 0.00 | 72 | 1012.9 |
| 20260506081011 | 10 | 50 | 6.4 | 20.9 | 0.00 | 0.00 | 0.00 | 72 | 1012.7 |
| 20260506080511 | 10 | 13 | 8.0 | 20.9 | 0.00 | 0.00 | 0.00 | 72 | 1012.8 |
| 20260506073512 | 10 | 37 | 6.4 | 20.9 | 0.00 | 0.00 | 0.00 | 71 | 1012.9 |
| 20260506073016 | 10 | 46 | 11.3 | 27.4 | 0.00 | 0.00 | 0.00 | 70 | 1012.9 |
| 20260506072509 | 10 | 11 | 9.7 | 27.4 | 0.00 | 0.00 | 0.00 | 70 | 1013.0 |
| 20260506072010 | 10 | 6 | 11.3 | 17.7 | 0.00 | 0.00 | 0.00 | 70 | 1013.1 |
| 20260506071512 | 10 | 17 | 6.4 | 20.9 | 0.00 | 0.00 | 0.00 | 70 | 1013.3 |
| 20260506071010 | 10 | 2 | 12.9 | 20.9 | 0.00 | 0.00 | 0.00 | 70 | 1013.3 |
| 20260506070507 | 10 | 23 | 8.0 | 20.9 | 0.00 | 0.00 | 0.00 | 70 | 1013.4 |
| 20260506062508 | 10 | 41 | 12.9 | 24.1 | 0.00 | 0.00 | 0.00 | 70 | 1012.7 |
| 20260506062011 | 10 | 13 | 14.5 | 33.8 | 0.00 | 0.00 | 0.00 | 70 | 1012.8 |
| 20260506061522 | 10 | 29 | 12.9 | 33.8 | 0.00 | 0.00 | 0.00 | 70 | 1012.8 |
| 20260506061008 | 10 | 32 | 14.5 | 32.2 | 0.00 | 0.00 | 0.00 | 70 | 1012.7 |
| 20260506060509 | 10 | 40 | 17.7 | 32.2 | 0.00 | 0.00 | 0.00 | 70 | 1012.7 |
| 20260506051003 | 10 | 31 | 14.5 | 25.7 | 0.00 | 0.00 | 0.00 | 72 | 1013.2 |
| 20260506050504 | 10 | 35 | 8.0 | 20.9 | 0.00 | 0.00 | 0.00 | 72 | 1012.9 |
| 20260506045012 | 10 | 35 | 12.9 | 25.7 | 0.00 | 0.00 | 0.00 | 73 | 1012.7 |
| 20260506044527 | 10 | 29 | 14.5 | 25.7 | 0.00 | 0.00 | 0.00 | 73 | 1012.8 |
| 20260506044003 | 10 | 14 | 12.9 | 25.7 | 0.00 | 0.00 | 0.00 | 74 | 1012.7 |
| 20260506043513 | 10 | 58 | 8.0 | 19.3 | 0.00 | 0.00 | 0.00 | 74 | 1012.6 |
| 20260506043008 | 10 | 39 | 11.3 | 27.4 | 0.00 | 0.00 | 0.00 | 74 | 1012.4 |
| 20260506042502 | 10 | 17 | 9.7 | 27.4 | 0.00 | 0.00 | 0.00 | 74 | 1012.5 |
| 20260506042007 | 10 | 34 | 14.5 | 25.7 | 0.00 | 0.00 | 0.00 | 75 | 1012.6 |
| 20260506041504 | 10 | 34 | 11.3 | 30.6 | 0.00 | 0.00 | 0.00 | 75 | 1012.8 |
| 20260506041007 | 10 | 33 | 14.5 | 25.7 | 0.00 | 0.00 | 0.00 | 75 | 1012.9 |
| 20260506040506 | 10 | 40 | 3.2 | 32.2 | 0.00 | 0.00 | 0.00 | 75 | 1012.8 |
| 20260506040004 | 10 | 55 | 9.7 | 32.2 | 0.00 | 0.00 | 0.00 | 75 | 1012.7 |
| 20260506035508 | 10 | 15 | 12.9 | 25.7 | 0.00 | 0.00 | 0.00 | 75 | 1012.7 |
| 20260506035006 | 10 | 36 | 9.7 | 29.0 | 0.00 | 0.00 | 0.00 | 75 | 1012.5 |
| 20260506034504 | 10 | 56 | 16.1 | 29.0 | 0.00 | 0.00 | 0.00 | 75 | 1012.6 |
| 20260506034007 | 10 | 42 | 3.2 | 19.3 | 0.00 | 0.00 | 0.00 | 75 | 1012.8 |
| 20260506033505 | 10 | 32 | 6.4 | 24.1 | 0.00 | 0.00 | 0.00 | 74 | 1012.7 |
| 20260506033021 | 10 | 341 | 6.4 | 24.1 | 0.00 | 0.00 | 0.00 | 74 | 1012.7 |
| 20260506032506 | 10 | 40 | 6.4 | 19.3 | 0.00 | 0.00 | 0.00 | 74 | 1012.7 |
| 20260506032004 | 10 | 67 | 11.3 | 19.3 | 0.00 | 0.00 | 0.00 | 74 | 1012.7 |
| 20260506031518 | 10 | 38 | 8.0 | 24.1 | 0.00 | 0.00 | 0.00 | 75 | 1012.7 |
| 20260506031005 | 10 | 329 | 8.0 | 24.1 | 0.00 | 0.00 | 0.00 | 75 | 1012.6 |
| 20260506030509 | 10 | 49 | 11.3 | 24.1 | 0.00 | 0.00 | 0.00 | 75 | 1012.5 |
| 20260506030018 | 10 | 36 | 4.8 | 24.1 | 0.00 | 0.00 | 0.00 | 75 | 1012.3 |
| 20260506025508 | 10 | 40 | 9.7 | 24.1 | 0.00 | 0.00 | 0.00 | 75 | 1012.2 |
| 20260506025010 | 10 | 57 | 12.9 | 19.3 | 0.00 | 0.00 | 0.00 | 75 | 1012.1 |
| 20260506024513 | 10 | 30 | 9.7 | 24.1 | 0.00 | 0.00 | 0.00 | 75 | 1012.0 |
| 20260506024004 | 10 | 44 | 8.0 | 20.9 | 0.00 | 0.00 | 0.00 | 75 | 1011.9 |
| 20260506023506 | 10 | 43 | 9.7 | 20.9 | 0.00 | 0.00 | 0.00 | 76 | 1011.8 |
| 20260506023011 | 10 | 37 | 8.0 | 22.5 | 0.00 | 0.00 | 0.00 | 76 | 1011.6 |
| 20260506022511 | 10 | 56 | 9.7 | 22.5 | 0.00 | 0.00 | 0.00 | 76 | 1011.5 |
| 20260506022006 | 10 | 13 | 12.9 | 22.5 | 0.00 | 0.00 | 0.00 | 76 | 1011.4 |
| 20260506021508 | 10 | 24 | 6.4 | 20.9 | 0.00 | 0.00 | 0.00 | 76 | 1011.4 |
| 20260506021008 | 10 | 50 | 11.3 | 19.3 | 0.00 | 0.00 | 0.00 | 76 | 1011.3 |
| 20260506020507 | 10 | 6 | 9.7 | 35.4 | 0.00 | 0.00 | 0.00 | 75 | 1011.0 |
| 20260506020004 | 10 | 31 | 17.7 | 35.4 | 0.00 | 0.00 | 0.00 | 75 | 1010.9 |
| 20260506015507 | 10 | 360 | 8.0 | 29.0 | 0.00 | 0.00 | 0.00 | 75 | 1010.9 |
| 20260506015008 | 10 | 317 | 8.0 | 29.0 | 0.00 | 0.00 | 0.00 | 75 | 1010.6 |
| 20260506014525 | 10 | 19 | 8.0 | 17.7 | 0.00 | 0.00 | 0.00 | 75 | 1010.7 |
| 20260506014008 | 10 | 33 | 8.0 | 17.7 | 0.00 | 0.00 | 0.00 | 75 | 1010.7 |
| 20260506013507 | 10 | 23 | 6.4 | 20.9 | 0.00 | 0.00 | 0.00 | 75 | 1010.4 |
| 20260506013024 | 10 | 49 | 11.3 | 24.1 | 0.00 | 0.00 | 0.00 | 75 | 1010.2 |
| 20260506012504 | 10 | 10 | 12.9 | 24.1 | 0.00 | 0.00 | 0.00 | 75 | 1010.0 |
| 20260506012004 | 10 | 37 | 8.0 | 24.1 | 0.00 | 0.00 | 0.00 | 75 | 1009.9 |
| 20260506011525 | 10 | 51 | 11.3 | 24.1 | 0.00 | 0.00 | 0.00 | 74 | 1010.1 |
| 20260506011007 | 10 | 38 | 11.3 | 25.7 | 0.00 | 0.00 | 0.00 | 74 | 1010.3 |
| 20260506010507 | 10 | 76 | 11.3 | 29.0 | 0.00 | 0.00 | 0.00 | 74 | 1010.2 |
| 20260506010022 | 10 | 36 | 16.1 | 29.0 | 0.00 | 0.00 | 0.00 | 74 | 1010.1 |
| 20260506005502 | 10 | 360 | 11.3 | 29.0 | 0.00 | 0.00 | 0.00 | 73 | 1009.8 |
| 20260506005009 | 10 | 20 | 16.1 | 29.0 | 0.00 | 0.00 | 0.00 | 73 | 1010.1 |
| 20260506004523 | 10 | 23 | 9.7 | 25.7 | 0.00 | 0.00 | 0.00 | 73 | 1010.0 |
| 20260506004004 | 11 | 4 | 12.9 | 25.7 | 0.00 | 0.00 | 0.00 | 72 | 1009.9 |
| 20260506003509 | 11 | 33 | 11.3 | 27.4 | 0.00 | 0.00 | 0.00 | 72 | 1009.9 |
| 20260506003012 | 11 | 348 | 11.3 | 29.0 | 0.00 | 0.00 | 0.00 | 71 | 1010.1 |
| 20260506002510 | 11 | 63 | 14.5 | 27.4 | 0.00 | 0.00 | 0.00 | 71 | 1010.0 |
| 20260506002008 | 11 | 29 | 14.5 | 25.7 | 0.00 | 0.00 | 0.00 | 71 | 1010.0 |
| 20260506001508 | 11 | 19 | 9.7 | 25.7 | 0.00 | 0.00 | 0.00 | 71 | 1009.6 |
| 20260506001007 | 11 | 52 | 11.3 | 25.7 | 0.00 | 0.00 | 0.00 | 71 | 1009.6 |
| 20260506000507 | 11 | 25 | 11.3 | 30.6 | 0.00 | 0.00 | 0.00 | 71 | 1009.7 |
| 20260506000041 | 11 | 49 | 9.7 | 30.6 | 0.00 | 0.00 | 0.00 | 71 | 1009.6 |
| 20260505235506 | 11 | 18 | 8.0 | 38.6 | 0.00 | 0.00 | 0.00 | 70 | 1009.7 |
| 20260505235007 | 11 | 48 | 17.7 | 38.6 | 0.00 | 0.00 | 0.00 | 70 | 1009.7 |
| 20260505234526 | 11 | 24 | 17.7 | 27.4 | 0.00 | 0.00 | 0.00 | 71 | 1009.8 |
| 20260505234008 | 11 | 34 | 14.5 | 27.4 | 0.00 | 0.00 | 0.00 | 71 | 1009.7 |
| 20260505233504 | 11 | 343 | 16.1 | 27.4 | 0.00 | 0.00 | 0.00 | 70 | 1009.7 |
| 20260505233023 | 11 | 39 | 12.9 | 30.6 | 0.00 | 0.00 | 0.00 | 70 | 1009.6 |
| 20260505232511 | 11 | 21 | 17.7 | 30.6 | 0.00 | 0.00 | 0.00 | 70 | 1009.3 |
| 20260505232011 | 11 | 32 | 9.7 | 25.7 | 0.00 | 0.00 | 0.00 | 70 | 1009.4 |
| 20260505231528 | 11 | 26 | 14.5 | 27.4 | 0.00 | 0.00 | 0.00 | 70 | 1009.3 |
| 20260505231003 | 11 | 14 | 12.9 | 27.4 | 0.00 | 0.00 | 0.00 | 70 | 1009.3 |
| 20260505230506 | 11 | 20 | 12.9 | 25.7 | 0.00 | 0.00 | 0.00 | 70 | 1009.2 |
| 20260505230032 | 11 | 13 | 14.5 | 30.6 | 0.00 | 0.00 | 0.00 | 69 | 1009.1 |
| 20260505225504 | 11 | 23 | 16.1 | 32.2 | 0.00 | 0.00 | 0.00 | 69 | 1009.1 |
| 20260505225014 | 11 | 334 | 11.3 | 32.2 | 0.00 | 0.00 | 0.00 | 69 | 1009.0 |
| 20260505224516 | 11 | 33 | 6.4 | 30.6 | 0.00 | 0.00 | 0.00 | 69 | 1008.6 |
| 20260505224009 | 11 | 304 | 16.1 | 30.6 | 0.00 | 0.00 | 0.00 | 69 | 1008.5 |
| 20260505223509 | 11 | 42 | 11.3 | 29.0 | 0.00 | 0.00 | 0.00 | 70 | 1008.7 |
| 20260505223014 | 11 | 348 | 14.5 | 29.0 | 0.00 | 0.00 | 0.00 | 69 | 1008.8 |
| 20260505222511 | 11 | 344 | 11.3 | 30.6 | 0.00 | 0.00 | 0.00 | 70 | 1008.6 |
| 20260505222013 | 11 | 4 | 17.7 | 30.6 | 0.00 | 0.00 | 0.00 | 70 | 1008.3 |
| 20260505221512 | 12 | 44 | 14.5 | 37.0 | 0.00 | 0.00 | 0.00 | 71 | 1008.2 |
| 20260505221006 | 11 | 31 | 9.7 | 32.2 | 0.00 | 0.00 | 0.00 | 71 | 1008.2 |
| 20260505220506 | 12 | 20 | 20.9 | 32.2 | 0.00 | 0.00 | 0.00 | 70 | 1008.4 |
| 20260505220029 | 12 | 6 | 16.1 | 30.6 | 0.00 | 0.00 | 0.00 | 70 | 1008.5 |